This is the latest recevied weather packets stored in our database for station/object HB9TJR-3. If no packets are shown the sender has not sent any weather packets the latest 10 day(s).
| Time | Temp. | Humidity | Pressure | Rain* | Wind** | Luminosity | Snow |
|---|---|---|---|---|---|---|---|
| 1787439330 | 12.22° C | 68% | 870.9 hPa | 0 mm | - | - | - |
| 1787437410 | 12.22° C | 70% | 870.9 hPa | 0 mm | - | - | - |
| 1787436451 | 12.22° C | 73% | 870.9 hPa | 0 mm | - | - | - |
| 1787435490 | 12.22° C | 73% | 871 hPa | 0 mm | - | - | - |
| 1787434530 | 12.22° C | 72% | 871.1 hPa | 0 mm | - | - | - |
| 1787433570 | 12.78° C | 70% | 871 hPa | 0 mm | - | - | - |
| 1787432610 | 13.89° C | 68% | 871.1 hPa | 0 mm | - | - | - |
| 1787430690 | 13.89° C | 68% | 871.3 hPa | 0 mm | - | - | - |
| 1787429730 | 15° C | 66% | 871.3 hPa | 0 mm | - | - | - |
| 1787428772 | 15° C | 69% | 871.4 hPa | 0 mm | - | - | - |
| 1787427810 | 14.44° C | 69% | 871.3 hPa | 0 mm | - | - | - |
| 1787426850 | 13.89° C | 72% | 871.2 hPa | 0 mm | - | - | - |
| 1787425890 | 13.89° C | 69% | 871.1 hPa | 0 mm | - | - | - |
| 1787424930 | 13.89° C | 72% | 871.1 hPa | 0 mm | - | - | - |
| 1787423970 | 13.89° C | 72% | 871 hPa | 0 mm | - | - | - |
| 1787423010 | 13.89° C | 70% | 870.8 hPa | 0 mm | - | - | - |
| 1787422051 | 13.89° C | 72% | 870.7 hPa | 0 mm | - | - | - |
| 1787421090 | 14.44° C | 72% | 870.7 hPa | 0 mm | - | - | - |
| 1787420130 | 14.44° C | 70% | 870.6 hPa | 0 mm | - | - | - |
| 1787419171 | 14.44° C | 70% | 870.5 hPa | 0 mm | - | - | - |
| 1787418210 | 14.44° C | 68% | 870.4 hPa | 0 mm | - | - | - |
| 1787417251 | 14.44° C | 68% | 870.6 hPa | 0 mm | - | - | - |
| 1787416291 | 15° C | 67% | 870.5 hPa | 0 mm | - | - | - |
| 1787415330 | 15.56° C | 64% | 870.4 hPa | 0 mm | - | - | - |
| 1787414371 | 15° C | 65% | 870.3 hPa | 0 mm | - | - | - |
* Rain latest hour (hover to see other rain measurements)
** Current wind speed in m/s (hover to see current wind gust speed)